Kill Devil Hills, NC

10:36 PM EST on December 14, 2017 (GMT -0500)
First Flight

Weather History for KFFA - May, 2013

Change the Weather History Date:

Friday, May 10, 2013

  Actual Average (KMQI) Record (KMQI)
Temperature  
Mean Temperature 72 °F -  
Max Temperature 82 °F 71 °F 87 °F (1970)
Min Temperature 63 °F 58 °F 42 °F (1976)
Cooling Degree Days 8    
Growing Degree Days 22 (Base 50)    
Moisture  
Dew Point 59 °F    
Average Humidity 65    
Maximum Humidity 86    
Minimum Humidity 35    
Precipitation  
Precipitation 0.00 in - - ()
Sea Level Pressure  
Sea Level Pressure 30.04 in    
Wind  
Wind Speed 6 mph (SSW)    
Max Wind Speed 12 mph    
Max Gust Speed 20 mph    
Visibility 10 miles    
Events      
Averages and records for this station are not official NWS values.
T = Trace of Precipitation, MM = Missing Value Source: NWS Daily Summary

Daily Weather History Graph

Daily Weather History Graph

Search for Another Location

Airport or City:

Trip Planner

Search our weather history database for the weather conditions in past years. The results will help you decide how hot, cold, wet, or windy it might be!

Date:

Astronomy

May. 10, 2013 Rise Set
Actual Time 6:00 AM EDT 7:57 PM EDT
Civil Twilight 5:32 AM EDT 8:25 PM EDT
Nautical Twilight 4:58 AM EDT 9:00 PM EDT
Astronomical Twilight 4:21 AM EDT 9:37 PM EDT
Moon 6:23 AM EDT (5/10) 8:44 PM EDT (5/10)
Length of Visible Light 14h 53m
Length of Day
13h 56m
New Moon, 0% of the Moon is Illuminated
May 10
New Moon
May 18
First Quarter
May 25
Full
May 31
Last Quarter
Jun 8
New

Hourly Weather History & Observations

Time (EDT) Temp. Heat Index Dew Point Humidity Pressure Visibility Wind Dir Wind Speed Gust Speed Precip Events Conditions
12:15 AM 66.2 °F - 61.0 °F 83% 30.05 in 10.0 mi SW 6.9 mph - N/A   Clear
12:35 AM 66.4 °F - 60.8 °F 82% 30.05 in 10.0 mi SW 4.6 mph - N/A   Clear
1:15 AM 66.4 °F - 60.4 °F 81% 30.05 in 10.0 mi SW 4.6 mph - N/A   Clear
1:55 AM 66.2 °F - 60.8 °F 83% 30.04 in 10.0 mi SW 4.6 mph - N/A   Clear
2:15 AM 65.5 °F - 60.8 °F 85% 30.03 in 10.0 mi SW 3.5 mph - N/A   Clear
2:35 AM 64.9 °F - 60.8 °F 86% 30.04 in 10.0 mi SW 4.6 mph - N/A   Clear
2:55 AM 64.9 °F - 60.8 °F 86% 30.04 in 10.0 mi SW 6.9 mph - N/A   Clear
3:15 AM 65.7 °F - 60.3 °F 83% 30.05 in 10.0 mi WSW 4.6 mph - N/A   Clear
3:35 AM 65.7 °F - 59.9 °F 82% 30.04 in 10.0 mi SW 3.5 mph - N/A   Clear
3:55 AM 65.3 °F - 59.7 °F 82% 30.05 in 10.0 mi SW 3.5 mph - N/A   Clear
4:15 AM 64.9 °F - 59.5 °F 83% 30.05 in 10.0 mi SSW 4.6 mph - N/A   Clear
4:35 AM 64.4 °F - 59.9 °F 85% 30.04 in 7.0 mi SSW 3.5 mph - N/A   Clear
4:55 AM 64.6 °F - 60.1 °F 85% 30.04 in 10.0 mi SW 4.6 mph - N/A   Clear
5:15 AM 64.8 °F - 59.5 °F 83% 30.05 in 10.0 mi SSW 3.5 mph - N/A   Clear
5:35 AM 64.4 °F - 59.7 °F 85% 30.05 in 10.0 mi SW 3.5 mph - N/A   Clear
5:55 AM 64.0 °F - 59.4 °F 85% 30.06 in 10.0 mi SSW 3.5 mph - N/A   Clear
6:15 AM 63.9 °F - 59.4 °F 85% 30.06 in 10.0 mi Calm Calm - N/A   Clear
6:35 AM 63.9 °F - 59.4 °F 85% 30.06 in 7.0 mi Calm Calm - N/A   Clear
6:55 AM 64.8 °F - 59.7 °F 84% 30.06 in 10.0 mi SSW 3.5 mph - N/A   Clear
7:15 AM 65.8 °F - 60.3 °F 82% 30.07 in 10.0 mi SW 3.5 mph - N/A   Clear
7:35 AM 66.7 °F - 60.3 °F 80% 30.06 in 10.0 mi SW 3.5 mph - N/A   Clear
8:15 AM 68.5 °F - 59.7 °F 73% 30.06 in 10.0 mi SSW 4.6 mph - N/A   Clear
8:35 AM 69.8 °F - 59.4 °F 69% 30.07 in 10.0 mi SSW 4.6 mph - N/A   Clear
9:15 AM 72.9 °F - 58.6 °F 61% 30.07 in 10.0 mi SW 4.6 mph - N/A   Clear
9:35 AM 74.7 °F - 59.4 °F 59% 30.07 in 10.0 mi SW 4.6 mph - N/A   Clear
9:55 AM 75.9 °F - 59.7 °F 57% 30.07 in 10.0 mi SW 3.5 mph - N/A   Clear
10:15 AM 76.8 °F - 59.4 °F 55% 30.07 in 10.0 mi SW 5.8 mph - N/A   Clear
10:35 AM 77.5 °F - 58.3 °F 51% 30.07 in 10.0 mi SW 5.8 mph - N/A   Clear
10:55 AM 79.0 °F - 57.6 °F 48% 30.07 in 10.0 mi SSW 6.9 mph - N/A   Clear
11:15 AM 79.9 °F - 56.3 °F 44% 30.06 in 10.0 mi WSW 5.8 mph - N/A   Clear
11:35 AM 80.6 °F 80.5 °F 55.2 °F 42% 30.06 in 10.0 mi SW 3.5 mph - N/A   Clear
11:55 AM 81.1 °F 80.7 °F 54.1 °F 39% 30.06 in 10.0 mi SSW 5.8 mph - N/A   Clear
12:15 PM 81.9 °F 81.1 °F 53.6 °F 38% 30.05 in 10.0 mi South 4.6 mph - N/A   Clear
12:35 PM 82.0 °F 81.4 °F 54.5 °F 39% 30.04 in 10.0 mi South 4.6 mph - N/A   Clear
1:15 PM 81.5 °F 81.5 °F 57.4 °F 44% 30.03 in 10.0 mi South 5.8 mph - N/A   Clear
1:35 PM 81.9 °F 81.1 °F 54.0 °F 38% 30.03 in 10.0 mi South 9.2 mph - N/A   Clear
1:55 PM 81.9 °F - 51.6 °F 35% 30.03 in 10.0 mi South 9.2 mph - N/A   Clear
2:15 PM 81.7 °F - 51.4 °F 35% 30.04 in 10.0 mi South 10.4 mph 17.3 mph N/A   Clear
2:35 PM 81.5 °F - 51.8 °F 36% 30.03 in 10.0 mi South 8.1 mph - N/A   Scattered Clouds
2:55 PM 82.0 °F - 52.2 °F 35% 30.03 in 10.0 mi SSE 9.2 mph 17.3 mph N/A   Scattered Clouds
3:15 PM 81.7 °F 80.9 °F 53.1 °F 37% 30.02 in 10.0 mi South 9.2 mph 18.4 mph N/A   Scattered Clouds
3:35 PM 81.1 °F 80.6 °F 53.1 °F 38% 30.02 in 10.0 mi South 10.4 mph 19.6 mph N/A   Scattered Clouds
3:55 PM 81.3 °F 80.8 °F 54.0 °F 39% 30.02 in 10.0 mi South 9.2 mph - N/A   Clear
4:15 PM 80.8 °F 80.5 °F 54.5 °F 40% 30.01 in 10.0 mi South 10.4 mph 16.1 mph N/A   Clear
4:35 PM 79.7 °F - 54.5 °F 42% 30.01 in 10.0 mi South 10.4 mph 16.1 mph N/A   Clear
4:55 PM 79.3 °F - 54.1 °F 42% 30.02 in 10.0 mi South 8.1 mph 16.1 mph N/A   Clear
5:15 PM 79.0 °F - 55.2 °F 44% 30.02 in 10.0 mi South 11.5 mph 17.3 mph N/A   Clear
5:35 PM 78.4 °F - 57.0 °F 48% 30.02 in 10.0 mi South 4.6 mph - N/A   Clear
5:55 PM 77.9 °F - 58.6 °F 51% 30.01 in 10.0 mi South 9.2 mph - N/A   Clear
6:15 PM 76.6 °F - 59.2 °F 55% 30.01 in 10.0 mi South 8.1 mph - N/A   Clear
6:35 PM 75.7 °F - 59.5 °F 57% 30.01 in 10.0 mi South 5.8 mph - N/A   Clear
6:55 PM 74.5 °F - 61.2 °F 63% 30.01 in 10.0 mi South 9.2 mph - N/A   Clear
7:15 PM 73.4 °F - 61.7 °F 67% 30.01 in 10.0 mi South 6.9 mph - N/A   Clear
7:35 PM 72.7 °F - 61.3 °F 67% 30.00 in 10.0 mi SSE 5.8 mph - N/A   Clear
7:55 PM 71.8 °F - 61.3 °F 70% 30.01 in 10.0 mi South 6.9 mph - N/A   Clear
8:15 PM 71.1 °F - 61.7 °F 72% 30.00 in 10.0 mi South 5.8 mph - N/A   Clear
8:35 PM 70.5 °F - 61.7 °F 74% 30.00 in 10.0 mi South 6.9 mph - N/A   Clear
8:55 PM 70.0 °F - 61.9 °F 75% 30.01 in 10.0 mi South 8.1 mph - N/A   Clear
9:15 PM 69.8 °F - 62.4 °F 77% 30.02 in 10.0 mi South 6.9 mph - N/A   Clear
9:35 PM 69.8 °F - 63.0 °F 79% 30.02 in 10.0 mi South 5.8 mph - N/A   Clear
9:55 PM 69.4 °F - 63.5 °F 81% 30.02 in 10.0 mi South 5.8 mph - N/A   Clear
10:15 PM 69.4 °F - 63.5 °F 81% 30.02 in 10.0 mi SSW 6.9 mph - N/A   Clear
10:35 PM 69.4 °F - 63.5 °F 81% 30.01 in 10.0 mi SSW 6.9 mph - N/A   Clear
10:55 PM 69.6 °F - 63.5 °F 81% 30.01 in 10.0 mi SSW 8.1 mph - N/A   Clear
11:15 PM 69.6 °F - 63.7 °F 81% 30.01 in 10.0 mi SSW 6.9 mph - N/A   Clear
11:35 PM 69.8 °F - 63.9 °F 81% 30.01 in 10.0 mi SSW 6.9 mph - N/A   Clear
11:55 PM 69.6 °F - 63.9 °F 82% 30.01 in 10.0 mi SSW 6.9 mph - N/A   Clear